Location: Barbazan-Debat
(43.1954°N, 0.1186°E)
Time: 01:20:56
(UTC+00:00)

Daily predictions for brighter satellites

Satellite Brightness Start Highest point End
(mag) Time Altitude Azimuth Time Altitude Azimuth Time Altitude Azimuth
CZ-4C R/B 3.8 03:43:05 42° SE 03:43:05 42° SE 03:48:12 10° SSE
Cosmos 2263 Rocket 3.0 04:12:52 46° E 04:12:52 46° E 04:17:26 10° NE
USA 234 3.3 04:22:35 10° NE 04:29:09 75° SE 04:30:18 61° SSW
Cosmos 1452 Rocket 3.6 04:43:54 62° SSE 04:44:43 75° ESE 04:50:00 10° NNE
Cosmos 1092 Rocket 3.9 04:43:00 31° N 04:46:09 84° E 04:52:17 10° S
Timation 1 Rocket 4.3 04:43:58 37° SSW 04:46:29 79° ESE 04:52:27 10° NNE
Cosmos 44 4.3 04:46:02 20° S 04:48:57 42° ESE 04:53:15 10° NE
NOSS 2-1 (E) 4.5 04:48:57 65° W 04:49:30 68° WSW 04:57:34 10° SSE
Meteor 1-18 Rocket 4.4 04:54:06 21° N 04:57:55 71° ENE 05:03:30 10° SSE
ALOS 3.4 04:55:41 10° NNE 05:00:09 43° E 05:04:35 10° S
Cosmos 1943 3.0 05:01:28 65° WNW 05:02:06 72° WSW 05:07:41 10° SSE
PSLV R/B 4.1 04:58:07 10° NNE 05:02:14 69° ESE 05:06:20 10° S
COSMO-SKYMED 1 2.8 05:00:50 10° SSE 05:05:08 70° ENE 05:06:31 41° N
SL-23 DEB 4.5 05:09:59 38° NE 05:09:59 38° NE 05:12:05 10° ENE
STARLINK 1062 4.5 05:12:35 34° S 05:12:35 34° S 05:14:56 10° SSE
STARLINK 1053 4.4 05:16:01 34° S 05:16:01 34° S 05:18:28 10° SSE
Cosmos 2221 Rocket 4.0 05:13:27 15° N 05:16:58 60° E 05:21:19 10° SSE
STARLINK 1061 4.4 05:19:03 34° S 05:19:03 34° S 05:21:35 10° SSE
MOS 1-B 4.3 05:15:31 10° NNE 05:21:20 84° ESE 05:27:07 10° SSW
STARLINK 1067 4.3 05:22:19 33° SSW 05:22:19 33° SSW 05:24:56 10° SSE
Cosmos 1428 Rocket 4.4 05:16:25 10° N 05:22:46 82° W 05:29:03 10° S
Meteor 1-25 Rocket 4.3 05:18:42 10° SSW 05:24:10 53° WNW 05:29:45 10° N
PAYLOAD B 4.5 05:18:56 10° NNE 05:24:28 71° ESE 05:30:00 10° S
STARLINK 1058 4.3 05:25:32 32° SSW 05:25:32 32° SSW 05:28:13 10° SSE
Cosmos 1340 2.4 05:21:57 10° SSW 05:25:42 76° W 05:29:29 10° N
Cosmos 1346 Rocket 2.6 05:22:07 10° S 05:25:59 85° WNW 05:29:53 10° N
Helios 1A Rocket 3.9 05:22:28 10° NNE 05:26:22 46° E 05:30:15 10° S
Cosmos 1603 4.3 05:26:47 34° WSW 05:26:47 34° WSW 05:31:47 10° SSW
CZ-4C R/B 4.2 05:28:20 22° WSW 05:28:20 22° WSW 05:33:51 10° SSW
STARLINK 1043 4.4 05:28:47 31° SSW 05:28:47 31° SSW 05:31:33 10° SSE
Okean O Rocket 2.2 05:24:26 10° NNE 05:28:47 57° E 05:33:08 10° S
SKYMED 3 4.5 05:24:57 10° S 05:29:15 64° W 05:30:55 36° NNW
Cosmos 1869 Rocket 3.6 05:27:07 10° SSW 05:31:19 49° WNW 05:35:34 10° N
STARLINK 1065 4.4 05:31:59 30° SSW 05:31:59 30° SSW 05:34:49 10° SSE
Cosmos 1500 4.4 05:31:17 10° SSE 05:34:56 44° E 05:38:35 10° NNE
STARLINK 1063 4.4 05:35:20 28° SW 05:35:20 28° SW 05:38:14 10° SSE
Cosmos 1515 3.7 05:35:06 16° N 05:38:09 78° E 05:41:58 10° SSE
Meteor 1-14 Rocket 4.3 05:33:06 10° SSW 05:38:57 59° WNW 05:44:53 10° N
Geosat 3.9 05:34:51 10° SSE 05:39:51 70° WSW 05:43:10 22° NW
Cosmos 2026 Rocket 4.1 05:36:20 10° NNW 05:42:18 51° W 05:48:20 10° SSW
Cosmos 1110 Rocket 4.0 05:37:40 10° SSW 05:42:51 86° ESE 05:48:03 10° NNE
Meteor 2-4 Rocket 3.7 05:38:43 10° N 05:44:13 83° E 05:49:35 10° SSE
Cosmos 1674 Rocket 4.3 05:45:18 10° N 05:49:32 51° E 05:53:44 10° SSE
Meteor 1-19 Rocket 4.2 05:44:44 10° NNW 05:50:09 56° W 05:55:40 10° S
Okean 1-7 4.3 05:52:46 22° WSW 05:52:46 22° WSW 05:55:20 10° SW
ADEOS Rocket 4.1 05:46:01 10° SE 05:52:32 48° ENE 05:58:26 10° N
Cosmos 2279 Rocket 3.9 05:47:01 10° SSW 05:53:08 64° W 05:59:21 10° N
SKYMED 2 4.2 05:49:22 10° SSW 05:53:20 35° W 05:55:11 24° NW
GEOS 3 Rocket 3.8 05:49:39 10° SSE 05:54:35 51° WSW 05:57:52 21° NW
Cosmos 2263 Rocket 3.1 05:54:41 23° W 05:56:15 27° NW 06:00:55 10° N
Cosmos 1378 Rocket 4.2 06:02:45 10° N 06:07:08 59° E 06:11:31 10° SSE
SJ-7 4.3 06:07:35 10° N 06:11:34 67° WNW 06:15:30 10° SSW
USA 234 3.7 06:05:50 10° NE 06:11:53 42° NNW 06:17:40 11° W
SL-24 R/B 4.0 06:08:35 10° S 06:12:56 66° WSW 06:17:08 10° NNW
Cosmos 332 Rocket 3.8 06:08:37 10° SSW 06:13:28 62° WNW 06:18:21 10° NNE
FENGYUN 3A 4.0 06:09:10 10° N 06:14:13 43° WNW 06:19:15 10° SW
NOSS 3-2 (C) 4.3 06:10:17 10° SSW 06:15:47 53° ESE 06:21:58 10° NE
ATLAS CENTAUR R/B 2.5 06:12:53 10° NNW 06:16:50 38° NE 06:20:30 10° ESE
ATLAS 3B R/B 4.4 06:11:46 10° S 06:17:46 35° ESE 06:23:42 10° NE
Cosmos 1666 3.3 06:15:14 10° S 06:18:59 59° E 06:22:44 10° NNE
CZ-4 R/B 4.3 06:21:17 10° NE 06:24:12 20° E 06:27:07 10° SE
SMAP 3.2 06:21:37 10° NNE 06:26:18 84° ESE 06:30:56 10° SSW
Cosmos 1844 Rocket 2.7 06:22:07 10° SW 06:27:39 62° WNW 06:33:11 10° NNE
Cosmos 1655 Rocket 4.3 06:23:02 10° NNW 06:28:55 46° W 06:34:47 10° SSW
COSMOS 2406 4.0 06:24:24 10° NNW 06:29:57 51° ENE 06:35:27 10° SE
Okean 3 4.4 06:26:34 10° NNW 06:30:05 26° W 06:33:37 10° SSW
Cosmos 44 4.1 06:26:16 10° WSW 06:30:15 27° NW 06:34:07 10° NNE
IRIDIUM 106 4.3 06:25:28 10° N 06:30:43 86° W 06:35:56 10° S
Cosmos 1844 3.7 06:25:27 10° SSW 06:31:14 74° WNW 06:37:02 10° NNE
CZ-4B R/B 3.6 06:28:39 10° N 06:33:54 42° WNW 06:39:10 10° SW
Cosmos 371 Rocket 4.0 06:29:45 10° SW 06:34:06 32° WNW 06:38:30 10° N
Meteor 1-13 Rocket 4.4 06:29:20 10° NNW 06:34:40 50° W 06:40:03 10° SSW
Radarsat Rocket 4.2 06:28:37 10° N 06:34:53 67° WNW 06:41:55 10° SSW
Cosmos 1908 Rocket 3.6 06:30:58 10° S 06:35:27 86° W 06:39:56 10° N
Cosmos 2292 Rocket 4.2 06:29:59 10° N 06:36:36 79° W 06:41:27 10° S
ALOS 3.4 06:33:45 10° NNW 06:37:16 21° WNW 06:40:47 10° WSW
Cosmos 1302 Rocket 4.0 06:32:46 10° SSW 06:38:01 66° WNW 06:43:19 10° NNE
Cosmos 1536 3.1 06:36:57 10° SSW 06:40:52 47° WNW 06:44:49 10° N
COSMO-SKYMED 1 4.5 06:40:30 10° WSW 06:41:45 11° W 06:43:01 10° WNW
Feng Yun 1-1 Rocket 4.3 06:39:49 10° NNE 06:45:28 81° WNW 06:51:14 10° SSW
H-2A R/B 3.0 06:45:00 10° N 06:48:35 45° WNW 06:52:13 10° SSW
Cosmos 968 Rocket 4.0 06:44:29 10° NNW 06:49:36 62° ENE 06:54:40 10° SSE
CZ-2C R/B 4.5 06:47:34 10° ESE 06:51:59 28° ENE 06:56:21 10° N
Cosmos 1743 3.3 06:48:35 10° S 06:52:19 62° E 06:56:07 10° NNE
IRS-1C Rocket 4.1 06:47:32 10° N 06:52:43 61° WNW 06:57:52 10° SSW
Meteor 1-23 Rocket 4.3 06:48:44 10° NNW 06:54:28 64° W 07:00:07 10° S
